Location: Salillas
(41.9950°N, 0.2228°W)
Time: 03:17:25
(UTC+00:00)

CZ-2C R/B - Pass Details

Date: 29 March 2020
Orbit: 705 x 907 km, 98.1° (Epoch: 31 May)

Event Time Altitude Azimuth Distance (km) Brightness Sun altitude
Exits shadow 19:44:44 - 169° (S) 3,148 5.9 -15.5°
Reaches altitude 10° 19:46:46 10° 171° (S) 2,330 5.2 -15.8°
Maximum altitude 19:51:53 78° 257° (WSW) 774 3.1 -16.7°
Drops below altitude 10° 19:56:48 10° 344° (NNW) 2,235 5.9 -17.6°
Sets 19:59:02 0° 346° (NNW) 3,142 6.7 -18.0°
